[[{"header":{"parameterUnit":"m.s-1","parameterCategory":2,"la1":30.2992,"la2":30.254,"lo1":-89.0895,"lo2":-89.0443,"dy":0.0025,"dx":0.0025,"nx":19,"ny":19,"refTime":"2026-04-20T03:00:00:Z","depth":"0","parameterNumber":2,"parameterNumberName":"U-component_of_CURRENTS"},"data":[0,0,0,0.4164,0.4166,0.4267,0.4268,0.4381,0.4382,0,0,0,0,0,0,0,0,0,0,0,0.4133,0.4134,0.4164,0.4167,0.4267,0.4268,0.4381,0.4382,0,0,0,0,0,0,0,0,0,0,0,0.4132,0.4134,0.4135,0.4167,0.4267,0.4268,0.4381,0.4305,0,0,0,0,0,0,0,0,0,0,0.4208,0.4167,0.4133,0.4135,0.4168,0.4267,0.4268,0.4301,0.431,0.4336,0,0.437,0,0.4385,0.4391,0.4391,0,0,0,0.4152,0.416,0.421,0.4135,0.4169,0.4267,0.4218,0.4306,0.4316,0.4347,0.4371,0.4376,0.4387,0.4392,0.4392,0.4563,0.4563,0,0,0.4147,0.4125,0.4204,0.4217,0.422,0.4215,0.4221,0.4312,0.4318,0.4372,0.4378,0.4389,0.4393,0.4394,0.4562,0.4563,0,0,0,0.414,0.4121,0.4169,0.4212,0.4235,0.4218,0.4225,0.4314,0.4337,0.438,0.439,0.4393,0.4395,0.4561,0.4562,0.465,0,0,0,0.4136,0.4119,0.4166,0.4151,0.4234,0.4273,0.4225,0.4331,0.4341,0.4389,0.4393,0.4396,0.456,0.4561,0.4645,0.4616,0,0,0,0.4124,0.4117,0.4141,0.415,0.4203,0.4272,0.4299,0.4333,0.4348,0.4392,0.4397,0.4559,0.4561,0.4641,0.4612,0.4744,0,0,0,0.4079,0.4109,0.4141,0.4188,0.4202,0.43,0.4298,0.4362,0.4403,0.4394,0.456,0.4562,0.464,0.4609,0.4739,0.4614,0.4624,0,0,0.4086,0.4109,0.414,0.4172,0.426,0.4284,0.4389,0.4436,0.4444,0.4524,0.4528,0.4646,0.4611,0.4743,0.4738,0.4744,0,0,0,0.4123,0.4149,0.4185,0.4246,0.4322,0.4403,0.4459,0.4507,0.4596,0.4483,0.4666,0.4639,0.4721,0.4636,0.4643,0.4651,0.4572,0.4572,0.4571,0.4072,0.414,0.4203,0.4303,0.4377,0.4494,0.4571,0.4647,0.4665,0.4727,0.4729,0.4898,0.4809,0.4812,0.4823,0.4784,0.4784,0.4784,0.4785,0.4076,0.4111,0.422,0.4293,0.4409,0.4496,0.4677,0.4725,0.4884,0.4835,0.4915,0.475,0.4823,0.4833,0.479,0.4789,0.4789,0.4788,0.4788,0.4019,0.4048,0.41,0.4218,0.4336,0.4483,0.4641,0.4805,0.4908,0.4993,0.4961,0.4957,0.4952,0.5081,0.5082,0.5082,0.5083,0.5083,0.5083,0.3916,0.3986,0.4009,0.4149,0.4203,0.4359,0.464,0.4763,0.4948,0.5004,0.5004,0.4996,0.4988,0.4961,0.5091,0.509,0.5089,0.5088,0.5087,0.3829,0.3844,0.389,0.3926,0.4076,0.4147,0.4463,0.4702,0.4899,0.4931,0.5032,0.5042,0.5002,0.4993,0.4966,0.5091,0.5091,0.5091,0.5091,0.3731,0.376,0.3766,0.3795,0.3894,0.404,0.4106,0.4367,0.4745,0.4899,0.5044,0.4945,0.4944,0.4896,0.489,0.4859,0.4955,0.4955,0.4955,0.365,0.3684,0.3636,0.3694,0.3782,0.3867,0.3848,0.3974,0.4557,0.4958,0.5096,0.5102,0.4964,0.4962,0.4885,0.4876,0.4823,0,0]},{"header":{"parameterUnit":"m.s-1","parameterCategory":2,"la1":30.2992,"la2":30.254,"lo1":-89.0895,"lo2":-89.0443,"dy":0.0025,"dx":0.0025,"nx":19,"ny":19,"refTime":"2026-04-20T03:00:00:Z","depth":"0","parameterNumber":3,"parameterNumberName":"V-component_of_CURRENTS"},"data":[0,0,0,-0.0045,-0.0046,-0.0122,-0.0122,-0.0306,-0.0308,0,0,0,0,0,0,0,0,0,0,0,-0.0024,-0.0024,-0.0045,-0.0046,-0.0122,-0.0122,-0.0306,-0.0308,0,0,0,0,0,0,0,0,0,0,0,-0.0024,-0.0024,-0.0024,-0.0046,-0.0122,-0.0122,-0.0306,-0.0232,0,0,0,0,0,0,0,0,0,0,-0.015,-0.0096,-0.0024,-0.0024,-0.0046,-0.0121,-0.0122,-0.0228,-0.0237,-0.0289,0,-0.0288,0,-0.0292,-0.032,-0.0321,0,0,0,-0.0069,-0.0088,-0.0118,-0.0024,-0.0046,-0.0121,-0.0094,-0.0233,-0.0243,-0.0301,-0.029,-0.0297,-0.0295,-0.0321,-0.0322,-0.0391,-0.039,0,0,-0.0065,-0.0037,-0.011,-0.0123,-0.0052,-0.0091,-0.0096,-0.0238,-0.0239,-0.0291,-0.03,-0.0298,-0.0323,-0.0324,-0.0392,-0.0391,0,0,0,-0.0037,-0.0034,-0.0058,-0.0116,-0.0118,-0.0093,-0.0098,-0.0233,-0.0243,-0.0302,-0.03,-0.0324,-0.0326,-0.0392,-0.0391,-0.0216,0,0,0,-0.0036,-0.0016,-0.0056,-0.0041,-0.0114,-0.016,-0.009,-0.0233,-0.0249,-0.0299,-0.0324,-0.0328,-0.0393,-0.0392,-0.0222,-0.0105,0,0,0,-0.0023,-0.0015,-0.0021,-0.0039,-0.0061,-0.0158,-0.0176,-0.0237,-0.0247,-0.0321,-0.0328,-0.0393,-0.0392,-0.0227,-0.0117,0.0035,0,0,0,0.0002,0.0035,-0.002,0.0017,-0.006,-0.0066,-0.0175,-0.02,-0.0249,-0.0325,-0.0393,-0.0391,-0.0229,-0.0124,0.0027,0.023,0.0285,0,0,0.0065,0.0044,0.0066,0.0016,0.0053,-0.0058,-0.0029,-0.0146,-0.025,-0.0359,-0.036,-0.022,-0.0118,0.0033,0.0313,0.0366,0,0,0,0.01,0.0122,0.0121,0.0127,0.0089,0.0088,-0.0035,-0.0091,-0.0172,-0.0269,-0.024,-0.0181,-0.0091,0.0013,0.0054,-0.0121,-0.0385,-0.0385,-0.0385,0.0222,0.0204,0.026,0.024,0.0239,0.0172,0.0168,0.0067,-0.0082,-0.0085,-0.0054,0.0162,0.0272,0.0306,0.012,-0.0095,-0.0095,-0.0094,-0.0094,0.0348,0.0392,0.0379,0.043,0.0409,0.0416,0.034,0.0263,0.0255,0.0083,0.0161,0.0172,0.0362,0.0147,-0.0083,-0.0085,-0.0086,-0.0087,-0.0088,0.0438,0.0465,0.0488,0.0575,0.0639,0.059,0.0735,0.061,0.0452,0.052,0.0618,0.0616,0.0446,0.0547,0.0549,0.055,0.0551,0.0552,0.0552,0.053,0.0558,0.0658,0.0738,0.0819,0.0934,0.0973,0.1027,0.0996,0.0863,0.0863,0.0514,0.0358,0.0355,0.0571,0.0568,0.0565,0.0564,0.0562,0.0667,0.0678,0.0844,0.0941,0.1158,0.1431,0.1448,0.1625,0.1603,0.1626,0.1056,0.1048,0.1027,0.0993,0.1004,0.1375,0.1375,0.1375,0.1375,0.0771,0.0779,0.1037,0.1234,0.1487,0.167,0.2116,0.2173,0.1795,0.1534,0.1285,0.1128,0.1103,0.1071,0.1035,0.1038,0.141,0.1409,0.1409,0.089,0.0952,0.1171,0.1351,0.1638,0.1989,0.2449,0.2608,0.1936,0.1377,0.1003,0.1002,0.0721,0.0696,0.0591,0.0555,0.0539,0,0]}],[{"header":{"parameterUnit":"m.s-1","parameterCategory":2,"la1":30.2992,"la2":30.254,"lo1":-89.0895,"lo2":-89.0443,"dy":0.0025,"dx":0.0025,"nx":19,"ny":19,"refTime":"2026-04-20T03:00:00:Z","depth":"2","parameterNumber":2,"parameterNumberName":"U-component_of_CURRENTS"},"data":[0,0,0,0.3235,0.3237,0.3357,0.3358,0.3478,0.3479,0,0,0,0,0,0,0,0,0,0,0,0.319,0.3191,0.3234,0.3237,0.3357,0.3358,0.3477,0.3479,0,0,0,0,0,0,0,0,0,0,0,0.3189,0.319,0.3191,0.3238,0.3357,0.3358,0.3477,0.3395,0,0,0,0,0,0,0,0,0,0,0.3283,0.3243,0.319,0.3191,0.3239,0.3357,0.3358,0.3392,0.34,0.3413,0,0.3433,0,0.346,0.3486,0.3486,0,0,0,0.3238,0.3236,0.3272,0.3191,0.324,0.3357,0.3303,0.3397,0.3407,0.3425,0.3435,0.344,0.3462,0.3486,0.3487,0.3663,0.3664,0,0,0.3232,0.3209,0.3265,0.3278,0.3272,0.33,0.3307,0.3403,0.3411,0.3435,0.3443,0.3464,0.3487,0.3488,0.3661,0.3663,0,0,0,0.3212,0.3204,0.3239,0.3273,0.3298,0.3303,0.3312,0.3407,0.3419,0.3445,0.3465,0.3488,0.3489,0.366,0.3662,0.3689,0,0,0,0.3208,0.3193,0.3235,0.3223,0.3296,0.3358,0.3313,0.3412,0.3424,0.3465,0.3488,0.349,0.3659,0.3661,0.3686,0.3709,0,0,0,0.3184,0.319,0.3205,0.3221,0.3274,0.3357,0.3376,0.3416,0.3437,0.3486,0.349,0.3658,0.3661,0.3683,0.3704,0.3794,0,0,0,0.3155,0.3181,0.3205,0.3254,0.3273,0.3367,0.3376,0.3453,0.35,0.3488,0.3659,0.3662,0.3682,0.3701,0.379,0.3716,0.3729,0,0,0.3171,0.3183,0.3217,0.3241,0.331,0.3351,0.345,0.3513,0.3546,0.3622,0.3627,0.3687,0.3703,0.3793,0.387,0.3878,0,0,0,0.3212,0.3222,0.3252,0.3303,0.3376,0.3462,0.3524,0.3566,0.3666,0.3587,0.3734,0.3745,0.38,0.3748,0.3756,0.3674,0.3674,0.3674,0.3674,0.3164,0.3224,0.3274,0.3354,0.3419,0.3544,0.3624,0.3703,0.371,0.3777,0.3801,0.3936,0.3882,0.3886,0.3835,0.3835,0.3835,0.3835,0.3835,0.3158,0.3185,0.3273,0.334,0.3456,0.3554,0.3726,0.3779,0.3916,0.3884,0.3936,0.3822,0.3895,0.3839,0.3838,0.3837,0.3837,0.3837,0.3837,0.3094,0.312,0.3176,0.3278,0.3403,0.3568,0.3714,0.3859,0.3966,0.4022,0.4008,0.4006,0.3949,0.4066,0.4066,0.4067,0.4067,0.4067,0.4068,0.2999,0.3057,0.3095,0.3215,0.3291,0.3458,0.3726,0.3854,0.4025,0.4062,0.4061,0.4015,0.4007,0.3966,0.4076,0.4074,0.4073,0.4073,0.4072,0.2915,0.2937,0.2969,0.303,0.3195,0.3249,0.3547,0.38,0.3981,0.4041,0.4093,0.409,0.4085,0.4077,0.404,0.4163,0.4163,0.4163,0.4163,0.2833,0.2861,0.2856,0.2901,0.3003,0.314,0.3223,0.345,0.3773,0.3873,0.3885,0.377,0.3774,0.3745,0.3745,0.3698,0.3732,0.3731,0.373,0.2769,0.2775,0.2737,0.2792,0.289,0.2974,0.2953,0.3,0.3329,0.3705,0.3728,0.415,0.4009,0.4005,0.398,0.3972,0.3905,0,0]},{"header":{"parameterUnit":"m.s-1","parameterCategory":2,"la1":30.2992,"la2":30.254,"lo1":-89.0895,"lo2":-89.0443,"dy":0.0025,"dx":0.0025,"nx":19,"ny":19,"refTime":"2026-04-20T03:00:00:Z","depth":"2","parameterNumber":3,"parameterNumberName":"V-component_of_CURRENTS"},"data":[0,0,0,0.021,0.0209,0.0137,0.0136,0.0006,0.0005,0,0,0,0,0,0,0,0,0,0,0,0.0235,0.0235,0.021,0.0209,0.0137,0.0136,0.0007,0.0005,0,0,0,0,0,0,0,0,0,0,0,0.0235,0.0235,0.0234,0.0209,0.0137,0.0136,0.0007,0.0066,0,0,0,0,0,0,0,0,0,0,0.0139,0.0175,0.0235,0.0234,0.0209,0.0137,0.0136,0.0069,0.0062,0.0035,0,0.0037,0,0.0026,-0.0002,-0.0003,0,0,0,0.019,0.018,0.0164,0.0234,0.0208,0.0137,0.0164,0.0066,0.0058,0.0026,0.0035,0.003,0.0024,-0.0003,-0.0004,-0.0036,-0.0036,0,0,0.0194,0.0212,0.017,0.016,0.0205,0.0166,0.0162,0.0061,0.0057,0.0034,0.0027,0.0022,-0.0004,-0.0005,-0.0037,-0.0036,0,0,0,0.0219,0.0215,0.0201,0.0165,0.0159,0.0165,0.016,0.0061,0.0058,0.0026,0.002,-0.0005,-0.0006,-0.0037,-0.0037,0.0121,0,0,0,0.022,0.0231,0.0204,0.0212,0.0162,0.0115,0.0162,0.0065,0.0054,0.0021,-0.0005,-0.0007,-0.0038,-0.0037,0.0115,0.0197,0,0,0,0.0235,0.0232,0.023,0.0214,0.0191,0.0117,0.0107,0.0062,0.0051,-0.0003,-0.0007,-0.0038,-0.0037,0.011,0.0188,0.0243,0,0,0,0.0247,0.0279,0.023,0.0267,0.0192,0.02,0.0107,0.0087,0.0051,-0.0005,-0.0038,-0.0037,0.0109,0.0182,0.0238,0.0314,0.0346,0,0,0.0302,0.0286,0.0312,0.0267,0.0314,0.0208,0.0246,0.0149,0.0057,-0.0012,-0.0013,0.0117,0.0187,0.0242,0.0383,0.0413,0,0,0,0.034,0.0365,0.0368,0.038,0.0354,0.0348,0.025,0.0205,0.014,0.0044,0.0097,0.0136,0.0166,0.0199,0.0223,-0.0031,-0.0031,-0.0031,-0.0031,0.0436,0.0435,0.0494,0.0494,0.0494,0.0436,0.0421,0.0337,0.0233,0.0226,0.025,0.0381,0.0418,0.0437,0.0223,0.0224,0.0224,0.0225,0.0225,0.0554,0.0598,0.06,0.0653,0.0634,0.0649,0.0582,0.0514,0.0482,0.0373,0.0394,0.0346,0.0472,0.0237,0.0235,0.0233,0.0232,0.0231,0.023,0.0624,0.0651,0.0676,0.076,0.082,0.0788,0.0871,0.0765,0.0631,0.0657,0.0637,0.0634,0.0483,0.0652,0.0653,0.0653,0.0654,0.0654,0.0655,0.0684,0.072,0.0798,0.0882,0.0953,0.1038,0.1033,0.1023,0.0927,0.0821,0.082,0.0524,0.051,0.0505,0.0665,0.0663,0.0662,0.0661,0.066,0.0779,0.0786,0.0921,0.1,0.1186,0.1357,0.1337,0.1331,0.1265,0.1231,0.0896,0.0887,0.0839,0.0818,0.0819,0.105,0.105,0.105,0.105,0.0835,0.0851,0.1037,0.1194,0.1385,0.1507,0.1689,0.1613,0.1374,0.1188,0.1181,0.1109,0.1091,0.1049,0.1022,0.1023,0.1308,0.1309,0.1309,0.0904,0.0955,0.1098,0.125,0.1477,0.1678,0.1844,0.1778,0.1428,0.1315,0.1185,0.1075,0.0946,0.0926,0.0834,0.0803,0.0793,0,0]}],[{"header":{"parameterUnit":"m.s-1","parameterCategory":2,"la1":30.2992,"la2":30.254,"lo1":-89.0895,"lo2":-89.0443,"dy":0.0025,"dx":0.0025,"nx":19,"ny":19,"refTime":"2026-04-20T03:00:00:Z","depth":"4","parameterNumber":2,"parameterNumberName":"U-component_of_CURRENTS"},"data":[0,0,0,0.2023,0.2028,0.227,0.2271,0.2474,0.2476,0,0,0,0,0,0,0,0,0,0,0,0.1946,0.1948,0.2023,0.2028,0.227,0.2271,0.2474,0.2476,0,0,0,0,0,0,0,0,0,0,0,0.1945,0.1947,0.1949,0.2029,0.227,0.2271,0.2474,0.2319,0,0,0,0,0,0,0,0,0,0,0.2098,0.2046,0.1947,0.1949,0.2031,0.227,0.2272,0.2313,0.2329,0.2332,0,0.238,0,0.2426,0.2486,0.2487,0,0,0,0.2036,0.2033,0.209,0.195,0.2033,0.2269,0.2163,0.2323,0.234,0.2352,0.2384,0.2392,0.2429,0.2487,0.2488,0.2655,0.2655,0,0,0.2022,0.1995,0.2078,0.2102,0.2108,0.2155,0.2171,0.2335,0.236,0.2384,0.2397,0.2432,0.2488,0.249,0.2654,0.2655,0,0,0,0.1979,0.1986,0.2042,0.2092,0.2142,0.2162,0.218,0.2353,0.2371,0.24,0.2435,0.2489,0.2491,0.2653,0.2654,0.2723,0,0,0,0.1971,0.196,0.2036,0.2023,0.2139,0.2267,0.2194,0.236,0.238,0.2434,0.2489,0.2493,0.2652,0.2654,0.272,0.274,0,0,0,0.1933,0.1956,0.1986,0.2021,0.2122,0.2265,0.2294,0.2366,0.24,0.2487,0.2493,0.2652,0.2654,0.2717,0.2735,0.2832,0,0,0,0.1892,0.1932,0.1987,0.205,0.212,0.2247,0.2294,0.2409,0.2485,0.249,0.2653,0.2654,0.2716,0.2732,0.2828,0.2486,0,0,0,0.1906,0.1934,0.1969,0.2022,0.2125,0.2213,0.2348,0.247,0.2506,0.259,0.2596,0.2721,0.2735,0.2831,0.2579,0,0,0,0,0.1948,0.1976,0.2016,0.2101,0.22,0.2328,0.245,0.2513,0.2646,0.256,0.2733,0.2739,0.2799,0.2587,0.2662,0.2661,0.2661,0.2661,0.2661,0.1918,0.1981,0.2046,0.2147,0.2243,0.2423,0.2537,0.2648,0.2678,0.2752,0.2805,0.2935,0.2712,0.282,0.2821,0.2821,0.2821,0.2822,0.2822,0.1922,0.1946,0.2064,0.2153,0.23,0.2437,0.2641,0.2722,0.291,0.2879,0.2934,0.2683,0.2829,0.2827,0.2826,0.2826,0.2825,0.2825,0.2824,0.1868,0.1884,0.1976,0.2119,0.2286,0.2473,0.2651,0.2836,0.2958,0.3046,0.2861,0.3,0.2986,0.3103,0.3104,0.3104,0.3105,0.3105,0.3105,0.1761,0.1846,0.1922,0.2088,0.2191,0.2389,0.2696,0.2822,0.3003,0.2904,0.3091,0.303,0.3021,0.3003,0.3114,0.3112,0.3111,0.311,0.311,0.1658,0.1728,0.1812,0.1909,0.2127,0.2242,0.256,0.2727,0.2851,0.2852,0.2835,0.2846,0.2798,0.2795,0.2767,0.2812,0.2807,0.2804,0,0.1574,0.1618,0.1713,0.1811,0.1923,0.2141,0.222,0.2415,0.2593,0.2495,0.285,0.2823,0.283,0.2767,0.2758,0.2718,0,0,0,0.1508,0.1553,0.1572,0.1698,0.1805,0.1986,0.2229,0.2227,0.2545,0.2579,0.2704,0.273,0.2965,0.3138,0.3092,0.3081,0.305,0,0]},{"header":{"parameterUnit":"m.s-1","parameterCategory":2,"la1":30.2992,"la2":30.254,"lo1":-89.0895,"lo2":-89.0443,"dy":0.0025,"dx":0.0025,"nx":19,"ny":19,"refTime":"2026-04-20T03:00:00:Z","depth":"4","parameterNumber":3,"parameterNumberName":"V-component_of_CURRENTS"},"data":[0,0,0,0.026,0.026,0.0217,0.0217,0.013,0.013,0,0,0,0,0,0,0,0,0,0,0,0.0272,0.0272,0.026,0.026,0.0217,0.0217,0.013,0.013,0,0,0,0,0,0,0,0,0,0,0,0.0272,0.0272,0.0272,0.026,0.0217,0.0217,0.013,0.0166,0,0,0,0,0,0,0,0,0,0,0.021,0.0233,0.0272,0.0272,0.026,0.0218,0.0217,0.0168,0.0164,0.0146,0,0.015,0,0.0146,0.0125,0.0124,0,0,0,0.0242,0.0236,0.0228,0.0272,0.026,0.0218,0.0231,0.0166,0.0161,0.014,0.0149,0.0146,0.0145,0.0124,0.0124,0.0117,0.0117,0,0,0.0244,0.0257,0.0231,0.0226,0.0262,0.0233,0.023,0.0163,0.0162,0.0149,0.0144,0.0144,0.0124,0.0123,0.0116,0.0117,0,0,0,0.0263,0.0258,0.0251,0.0229,0.0228,0.0232,0.0229,0.0164,0.0163,0.0143,0.0143,0.0123,0.0122,0.0116,0.0116,0.0224,0,0,0,0.0264,0.0271,0.0253,0.0258,0.023,0.0201,0.0232,0.0168,0.016,0.0143,0.0123,0.0122,0.0115,0.0116,0.022,0.0278,0,0,0,0.0271,0.0271,0.0271,0.0259,0.025,0.0202,0.0197,0.0166,0.0161,0.0124,0.0121,0.0115,0.0116,0.0217,0.0271,0.0282,0,0,0,0.0277,0.0303,0.0272,0.0304,0.0251,0.0267,0.0197,0.019,0.0168,0.0123,0.0115,0.0116,0.0215,0.0266,0.0278,0.0301,0,0,0,0.0319,0.0308,0.0331,0.0302,0.0342,0.027,0.0302,0.0236,0.0176,0.013,0.013,0.0221,0.027,0.0281,0.0365,0,0,0,0,0.035,0.0369,0.0375,0.0389,0.0379,0.0376,0.0313,0.0281,0.024,0.017,0.0214,0.0241,0.0244,0.0247,0.0122,0.0122,0.0121,0.0121,0.0121,0.0411,0.0418,0.0466,0.0475,0.0483,0.0445,0.0433,0.0376,0.0309,0.0309,0.0323,0.04,0.0408,0.0309,0.0309,0.031,0.031,0.0311,0.0311,0.0492,0.0525,0.0541,0.059,0.0584,0.0603,0.0552,0.0504,0.0473,0.0413,0.041,0.0355,0.0321,0.0319,0.0318,0.0317,0.0316,0.0315,0.0315,0.053,0.0552,0.0586,0.0663,0.0719,0.0705,0.0749,0.0682,0.0577,0.0586,0.054,0.0461,0.0456,0.057,0.057,0.057,0.0571,0.0571,0.0571,0.0552,0.0592,0.0659,0.0742,0.0808,0.0873,0.0868,0.0839,0.0731,0.0669,0.0611,0.0486,0.0478,0.0469,0.0576,0.0575,0.0575,0.0574,0.0574,0.0592,0.0613,0.0719,0.0791,0.0945,0.1003,0.1013,0.0934,0.0896,0.081,0.0688,0.0681,0.0636,0.0623,0.0617,0.0773,0.0774,0.0774,0,0.0611,0.063,0.0771,0.0895,0.1022,0.1075,0.1078,0.103,0.0876,0.0863,0.0849,0.0715,0.0708,0.0657,0.0646,0.0642,0,0,0,0.0636,0.0682,0.0777,0.0905,0.1054,0.107,0.1077,0.1036,0.0916,0.0875,0.0792,0.0787,0.0704,0.0591,0.0503,0.0493,0.0473,0,0]}]]